Tracking 25195 objects as of 20-Jan-2022
HD Live streaming from Space Station
objects crossing your sky now

STARLINK-3192

Track STARLINK-3192 now!
10-day predictions
STARLINK-3192 is classified as:


NORAD ID: 49767
Int'l Code: 2021-115AV
Perigee: 450.2 km
Apogee: 453.9 km
Inclination: 53.2 °
Period: 93.5 minutes
Semi major axis: 6823 km
RCS: Unknown
Launch date: December 2, 2021
Source: United States (US)
Launch site: AIR FORCE EASTERN TEST RANGE (AFETR)
aabbcc
Your satellite tracking list
Your tracking list is empty




NASA's NSSDC Master Catalog

Two Line Element Set (TLE):
1 49767U 21115AV  22020.58334491 -.00029947  00000-0 -72220-3 0  9995
2 49767  53.2163  88.1529 0002721  16.8388 169.9387 15.40417218  3610
Source of the keplerian elements: AFSPC